1290124833942,35.2344
1290124893942,35.1525
1290124953942,35.1199
1290125013942,35.1577
1290125073942,35.1917
1290125133942,35.2756
1290125193942,35.2454
1290125253942,35.1199
1290125313942,35.1711
1290125373942,35.1831
1290125433942,35.1519
1290125493942,35.2148
1290125553942,35.2092
1290125613942,35.1815
1290125673942,35.1653
1290125733942,35.1543
1290125793942,35.1221
1290125853942,35.0931
1290125913942,35.1467
1290125973942,35.2164
1290126033942,35.0721
1290126093942,35.1053
1290126153942,35.2274
1290126213942,35.1620
1290126273942,35.1096
1290126333942,35.0453
1290126393942,35.0202
1290126453942,35.1146
1290126513942,35.0336
1290126573942,35.0914
1290126633942,35.0452
1290126693942,35.1980
1290126753942,35.1456
1290126813942,35.0297
1290126873942,35.1207
1290126933942,35.0316
1290126993942,35.1382
1290127053942,35.0785
1290127113942,35.0790
1290127173942,35.1370
1290127233942,35.0848
1290127293942,35.1491
1290127353942,35.1620
1290127413942,35.2018
1290127473942,35.0900
1290127533942,35.0668
1290127593942,35.1783
1290127653942,35.0891
1290127713942,35.0805
1290127773942,35.1286
1290127833942,35.1414
1290127893942,35.1261
1290127953942,35.1396
1290128013942,35.1643
1290128073942,35.1557
1290128133942,35.1659
1290128193942,35.1589
1290128253942,35.0809
1290128313942,35.3138
1290128373942,35.2494
1290128433952,35.1689
1290128493952,35.1948
1290128553952,35.2271
1290128613952,35.2094
1290128673952,35.2664
1290128733952,35.0478
1290128793952,35.2594
1290128853952,35.2064
1290128913952,35.2650
1290128973952,35.2125
1290129033952,35.1657
1290129093952,35.2195
1290129153952,35.1616
1290129213952,35.1236
1290129273952,35.2721
1290129333952,35.2633
1290129393952,35.1905
1290129453952,35.2310
1290129513952,35.1689
1290129573952,35.1708
1290129633952,35.2102
1290129693952,35.2341
1290129753952,35.2164
1290129813952,35.1662
1290129873952,35.1884
1290129933952,35.1470
1290129993952,35.2081
1290130053952,35.2071
1290130113952,35.2462
1290130173952,35.2527
1290130233952,35.1758
1290130293952,35.1196
1290130353952,35.1224
1290130413952,35.1475
1290130473952,35.1047
1290130533952,35.1162
1290130593952,35.2039
1290130653952,35.1805
1290130713952,35.1588
1290130773952,35.1514
1290130833952,35.3001
1290130893952,35.5312
1290130953952,35.2214
1290131013952,35.1198
1290131073952,35.2077
1290131133952,35.1659
1290131193952,35.2038
1290131253952,35.0545
1290131313952,35.0614
1290131373952,35.1029
1290131433952,35.1464
1290131493952,35.1878
1290131553952,35.2274
1290131613952,35.1835
1290131673952,35.1805
1290131733952,35.2430
1290131793952,35.1472
1290131853952,35.3124
1290131913952,35.1577
1290131973952,35.2671
1290132033963,35.4135
1290132093963,35.1425
1290132153963,35.0956
1290132213963,35.2148
1290132273963,35.2008
1290132333963,35.1957
1290132393963,35.1389
1290132453963,35.0468
1290132513963,35.1679
1290132573963,35.3208
1290132633963,35.1266
1290132693963,35.1135
1290132753963,35.2689
1290132813963,35.0750
1290132873963,35.1370
1290132933963,35.1611
1290132993963,35.1256
1290133053963,35.1075
1290133113963,35.2747
1290133173963,35.2087
1290133233963,35.1789
1290133293963,35.0894
1290133353963,35.0511
1290133413963,35.0860
1290133473963,35.1452
1290133533963,35.1193
1290133593963,35.0212
1290133653963,35.2288
1290133713963,35.0269
1290133773963,35.1559
1290133833963,35.1299
1290133893963,35.2145
1290133953963,35.0828
1290134013963,35.0918
1290134073963,35.1654
1290134133963,35.2067
1290134193963,35.1422
1290134253963,35.1393
1290134313963,35.1026
1290134373963,35.1034
1290134433963,35.0444
1290134493963,35.2013
1290134553963,35.2410
1290134613963,35.0396
1290134673963,35.1522
1290134733963,35.1873
1290134793963,35.1367
1290134853963,35.0444
1290134913963,35.0740
1290134973963,35.1098
1290135033963,35.1678
1290135093963,35.1564
1290135153963,35.2165
1290135213963,35.2718
1290135273963,35.1147
1290135333963,35.2318
1290135393963,35.1261
1290135453963,35.0356
1290135513963,35.1858
1290135573963,35.1050
1290135633974,35.1467
1290135693974,35.2452
1290135753974,35.1221
1290135813974,35.1730
1290135873974,35.0373
1290135933974,35.1406
1290135993974,35.1277
1290136053974,35.1103
1290136113974,35.1962
1290136173974,35.1239
1290136233974,35.0448
1290136293974,35.1251
1290136353974,35.1237
1290136413974,35.1915
1290136473974,35.0753
1290136533974,35.0208
1290136593974,35.1012
1290136653974,35.0772
1290136713974,35.0800
1290136773974,34.9916
1290136833974,35.0666
1290136893974,35.0838
1290136953974,35.0923
1290137013974,35.3392
1290137073974,35.0681
1290137133974,35.0277
1290137193974,35.0669
1290137253974,35.0660
1290137313974,35.1291
1290137373974,34.9120
1290137433974,34.9527
1290137493974,35.0172
1290137553974,35.0846
1290137613974,35.0121
1290137673974,35.0120
1290137733974,35.0275
1290137793974,35.0411
1290137853974,34.9477
1290137913974,35.0232
1290137973974,35.0394
1290138033974,35.0623
1290138093974,34.9913
1290138153974,35.1242
1290138213974,35.0694
1290138273974,35.0411
1290138333974,35.0231
1290138393974,35.0634
1290138453974,35.0071
1290138513974,35.3311
1290138573974,35.0642
1290138633974,34.9706
1290138693974,35.0070
1290138753974,35.1139
1290138813974,34.9547
1290138873974,35.0522
1290138933974,34.9754
1290138993974,35.0603
1290139053974,35.0491
1290139113974,35.0916
1290139173974,35.0216
1290139233984,35.0038
1290139293984,35.0201
1290139353984,35.0295
1290139413984,35.0864
1290139473984,35.0067
1290139533984,34.9316
1290139593984,34.9776
1290139653984,34.9808
1290139713984,34.9523
1290139773984,34.9870
1290139833984,34.9357
1290139893984,34.9098
1290139953984,35.0476
1290140013984,35.0337
1290140073984,35.1133
1290140133984,35.0323
1290140193984,35.1044
1290140253984,35.0338
1290140313984,35.0535
1290140373984,35.0432
1290140433984,35.0359
1290140493984,35.1462
1290140553984,35.0518
1290140613984,35.0948
1290140673984,34.9981
1290140733984,35.1006
1290140793984,34.9652
1290140853984,34.9645
1290140913984,35.0445
1290140973984,35.1265
1290141033984,35.0189
1290141093984,35.0338
1290141153984,35.1094
1290141213984,35.1287
1290141273984,35.0903
1290141333984,35.1189
1290141393984,34.9475
1290141453984,35.2252
1290141513984,35.1541
1290141573984,35.1744
1290141633984,35.1506
1290141693984,35.0967
1290141753984,35.1395
1290141813984,35.0982
1290141873984,35.1389
1290141933984,35.1674
1290141993984,35.2585
1290142053984,35.1742
1290142113984,35.1364
1290142173984,35.1712
1290142233984,35.1701
1290142293984,35.0852
1290142353984,35.1742
1290142413984,35.2370
1290142473984,35.2736
1290142533984,35.1001
1290142593984,35.1264
1290142653984,35.1250
1290142713984,35.2094
1290142773984,35.1460
1290142833995,35.1944
1290142893995,35.1442
1290142953995,35.1517
1290143013995,35.1113
1290143073995,35.2067
1290143133995,35.0864
1290143193995,35.1140
1290143253995,35.0983
1290143313995,35.0324
1290143373995,35.1720
1290143433995,35.1283
1290143493995,35.2873
1290143553995,35.1210
1290143613995,35.0444
1290143673995,35.1724
1290143733995,35.2655
1290143793995,35.1548
1290143853995,35.1458
1290143913995,35.1100
1290143973995,35.1270
1290144033995,35.0613
1290144093995,35.1870
1290144153995,35.2639
1290144213995,35.1619
1290144273995,35.1693
1290144333995,35.2267
1290144393995,35.2422
1290144453995,35.1857
1290144513995,35.1690
1290144573995,35.2126
1290144633995,35.2808
1290144693995,35.2038
1290144753995,35.1426
1290144813995,35.1773
1290144873995,35.1574
1290144933995,35.2734
1290144993995,35.2524
1290145053995,35.1559
1290145113995,35.0447
1290145173995,35.1765
1290145233995,35.2173
1290145293995,35.2042
1290145353995,35.2510
1290145413995,35.3048
1290145473995,35.2192
1290145533995,35.2288
1290145593995,35.1002
1290145653995,35.2621
1290145713995,35.1668
1290145773995,35.1554
1290145833995,35.1540
1290145893995,35.2298
1290145953995,35.1402
1290146013995,35.1476
1290146073995,35.1676
1290146133995,35.2639
1290146193995,35.1527
1290146253995,35.1072
1290146313995,35.0973
1290146373995,35.1007
1290146434006,35.1549
1290146494006,35.2573
1290146554006,35.2101
1290146614006,35.1835
1290146674006,35.1703
1290146734006,35.1797
1290146794006,35.2316
1290146854006,35.1650
1290146914006,35.1530
1290146974006,35.3024
1290147034006,35.3290
1290147094006,35.1268
1290147154006,35.3524
1290147214006,35.1956
1290147274006,35.3265
1290147334006,35.2495
1290147394006,35.2262
1290147454006,35.3236
1290147514006,35.2859
1290147574006,35.3245
1290147634006,35.3766
1290147694006,35.2372
1290147754006,35.2529
1290147814006,35.2770
1290147874006,35.3852
1290147934006,35.2536
1290147994006,35.3212
1290148054006,35.3689
1290148114006,35.3508
1290148174006,35.3195
1290148234006,35.2840
1290148294006,35.3740
1290148354006,35.2929
1290148414006,35.3583
1290148474006,35.4247
1290148534006,35.3075
1290148594006,35.3632
1290148654006,35.4517
1290148714006,35.2841
1290148774006,35.3750
1290148834006,35.3558
1290148894006,35.3870
1290148954006,35.2734
1290149014006,35.1551
1290149074006,35.3442
1290149134006,35.2035
1290149194006,35.3525
1290149254006,35.2459
1290149314006,35.3043
1290149374006,35.2967
1290149434006,35.2862
1290149494006,35.3124
1290149554006,35.2677
1290149614006,35.4003
1290149674006,35.2952
1290149734006,35.2357
1290149794006,35.2015
1290149854006,35.2539
1290149914006,35.3657
1290149974006,35.2951
1290150034017,35.2503
1290150094017,35.2748
1290150154017,35.3294
1290150214017,35.1438
1290150274017,35.2123
1290150334017,35.1456
1290150394017,35.3661
1290150454017,35.2694
1290150514017,35.2761
1290150574017,35.2164
1290150634017,35.2025
1290150694017,35.2256
1290150754017,35.2803
1290150814017,35.2287
1290150874017,35.2118
1290150934017,35.2662
1290150994017,35.3223
1290151054017,35.3635
1290151114017,35.3273
1290151174017,35.2823
1290151234017,35.1451
1290151294017,35.2662
1290151354017,35.2505
1290151414017,35.2895
1290151474017,35.2416
1290151534017,35.2556
1290151594017,35.3663
1290151654017,35.2956
1290151714017,35.2204
1290151774017,35.1928
1290151834017,35.1770
1290151894017,35.2264
1290151954017,35.1031
1290152014017,35.1217
1290152074017,35.2471
1290152134017,35.1409
1290152194017,35.1799
1290152254017,35.1710
1290152314017,35.0686
1290152374017,35.1194
1290152434017,35.1394
1290152494017,35.0773
1290152554017,35.1000
1290152614017,35.1633
1290152674017,35.1457
1290152734017,35.1110
1290152794017,35.1579
1290152854017,35.2391
1290152914017,35.1731
1290152974017,34.9810
1290153034017,35.0866
1290153094017,35.1109
1290153154017,35.0913
1290153214017,35.0786
1290153274017,35.0929
1290153334017,35.1543
1290153394017,35.1069
1290153454017,35.1309
1290153514017,35.1899
1290153574017,35.1938
1290153634028,35.0932
1290153694028,35.0482
1290153754028,35.1988
1290153814028,35.0715
1290153874028,35.1511
1290153934028,35.0457
1290153994028,35.0392
1290154054028,35.0828
1290154114028,35.0452
1290154174028,35.0186
1290154234028,35.0674
1290154294028,35.0860
1290154354028,35.1844
1290154414028,35.0522
1290154474028,35.1665
1290154534028,35.0148
1290154594028,35.1200
1290154654028,34.9780
1290154714028,35.0545
1290154774028,35.0938
1290154834028,35.0558
1290154894028,35.0958
1290154954028,34.9915
1290155014028,35.0357
1290155074028,35.0347
1290155134028,35.0431
1290155194028,35.0523
1290155254028,34.9669
1290155314028,35.0554
1290155374028,35.0503
1290155434028,35.1267
1290155494028,34.9762
1290155554028,34.9879
1290155614028,35.0828
1290155674028,35.0256
1290155734028,35.0603
1290155794028,35.0523
1290155854028,35.0192
1290155914028,34.9885
1290155974028,35.0579
1290156034028,35.1096
1290156094028,35.0528
1290156154028,34.9977
1290156214028,35.0821
1290156274028,34.9886
1290156334028,34.9189
1290156394028,35.0057
1290156454028,34.9257
1290156514028,35.1219
1290156574028,35.0844
1290156634028,35.0075
1290156694028,34.8919
1290156754028,34.9702
1290156814028,35.0212
1290156874028,34.9872
1290156934028,34.9530
1290156994028,34.9933
1290157054028,34.8893
1290157114028,35.0341
1290157174028,34.9410
1290157234040,35.0078
1290157294040,35.0941
1290157354040,34.8923
1290157414040,35.0237
1290157474040,35.0242
1290157534040,34.9488
1290157594040,34.8555
1290157654040,34.9994
1290157714040,35.0057
1290157774040,35.0599
1290157834040,34.9760
1290157894040,34.7815
1290158434040,34.9085
1290158494040,34.8312
1290158554040,34.8563
1290158614040,34.8581
1290158674040,34.9824
1290158734040,34.8708
1290158794040,34.9068
1290158854040,34.7860
1290158914040,34.9450
1290158974040,34.8521
1290159034040,34.9790
1290159094040,34.8086
1290159154040,34.8531
1290159214040,34.9598
1290159274040,34.8069
1290159334040,34.8062
1290159394040,34.8964
1290159454040,34.9655
1290159514040,34.8873
1290159574040,34.9123
1290159634040,35.0018
1290159694040,34.9843
1290159754040,34.8248
1290159814040,34.9641
1290159874040,34.9015
1290159934040,34.9233
1290159994040,34.8768
1290160054040,34.9566
1290160114040,34.9785
1290160174040,34.8408
1290160234040,34.9193
1290160294040,34.8761
1290160354040,34.9160
1290160414040,34.9750
1290160474040,34.9529
1290160534040,34.8830
1290160594040,34.8461
1290160654040,34.8945
1290160714040,34.8838
1290160774040,34.8986
1290160834052,34.8692
1290160894052,35.0382
1290160954052,34.9383
1290161014052,34.9824
1290161074052,34.8550
1290161134052,35.0166
1290161194052,35.0025
1290161254052,34.9483
1290161314052,34.8379
1290161374052,34.9770
1290161434052,34.8646
1290161494052,34.8942
1290161554052,34.9456
1290161614052,34.9541
1290161674052,34.9056
1290161734052,34.9114
1290161794052,34.9480
1290161854052,34.8435
1290161914052,34.8229
1290161974052,34.9907
1290162034052,34.8328
1290162094052,34.8799
1290162154052,34.8047
1290162214052,34.9263
1290162274052,34.9029
1290162334052,34.8643
1290162394052,34.8779
1290162454052,34.9103
1290162514052,34.8901
1290162574052,34.9203
1290162634052,34.9572
1290162694052,34.9054
1290162754052,35.0094
1290162814052,34.8416
1290162874052,34.8760
1290162934052,34.9779
1290162994052,34.8569
1290163054052,34.9269
1290163114052,34.9242
1290163174052,34.9003
1290163234052,34.8053
1290163294052,34.8849
1290163354052,34.9289
1290163414052,34.9098
1290163474052,34.7970
1290163534052,34.9626
1290163594052,34.9323
1290163654052,34.8511
1290163714052,34.9770
1290163774052,34.9139
1290163834052,34.9832
1290163894052,34.9665
1290163954052,34.9045
1290164014052,34.9286
1290164074052,34.8972
1290164134052,34.8522
1290164194052,34.9545
1290164254052,34.9279
1290164314052,34.9212
1290164374052,34.9359
1290164434064,34.9045
1290164494064,34.8437
1290164554064,34.9280
1290164614064,34.8570
1290164674064,34.8555
1290164734064,34.9570
1290164794064,34.8563
1290164854064,34.8783
1290164914064,34.8757
1290164974064,34.7910
1290165034064,34.8767
1290165094064,34.8324
1290165154064,34.9230
1290165214064,34.8032
1290165274064,34.7939
1290165334064,34.9072
1290165394064,34.8182
1290165454064,34.8005
1290165514064,34.8330
1290165574064,34.7925
1290165634064,34.8048
1290165694064,34.7974
1290165754064,34.9369
1290165814064,34.7933
1290165874064,34.8454
1290165934064,34.8387
1290165994064,34.7132
1290166054064,34.8214
1290166114064,34.7654
1290166174064,34.7592
1290166234064,34.8639
1290166294064,34.8495
1290166354064,34.7802
1290166414064,34.8957
1290166474064,34.7514
1290166534064,34.8055
1290166594064,34.8438
1290166654064,34.8646
1290166714064,34.8489
1290166774064,34.8090
1290166834064,34.7732
1290166894064,34.8033
1290166954064,34.8116
1290167014064,34.7725
1290167074064,34.8011
1290167134064,34.7896
1290167194064,34.7741
1290167254064,34.7702
1290167314064,34.7032
1290167374064,34.8361
1290167434064,34.7839
1290167494064,34.6563
1290167554064,34.8652
1290167614064,34.8043
1290167674064,34.8904
1290167734064,34.6925
1290167794064,34.7996
1290167854064,34.8769
1290167914064,34.7726
1290167974064,34.6941
1290168034076,34.6844
1290168094076,34.7556
1290168154076,34.8132
1290168214076,34.8341
1290168274076,34.8005
1290168334076,34.8819
1290168394076,34.6520
1290168454076,34.8691
1290168514076,34.6982
1290168574076,34.7498
1290168634076,34.6833
1290168694076,34.7033
1290168754076,34.7848
1290168814076,34.6160
1290168874076,34.7338
1290168934076,34.8224
1290168994076,34.7225
1290169054076,34.8273
1290169114076,34.8752
1290169174076,34.7300
1290169234076,34.7829
1290169294076,34.8167
1290169354076,34.7500
1290169414076,34.7404
1290169474076,34.7575
1290169534076,34.6775
1290169594076,34.7248
1290169654076,34.7715
1290169714076,34.7294
1290169774076,34.7581
1290169834076,34.7909
1290169894076,34.6484
1290169954076,34.7175
1290170014076,34.8034
1290170074076,34.8008
1290170134076,34.7107
1290170194076,34.7376
1290170254076,34.6715
1290170314076,34.8161
1290170374076,34.7872
1290170434076,34.7712
1290170494076,34.8224
1290170554076,34.7426
1290170614076,35.0531
1290170674076,34.7505
1290170734076,34.7629
1290170794076,34.7611
1290170854076,34.8209
1290170914076,34.7918
1290170974076,34.7439
1290171034076,34.7472
1290171094076,34.7809
1290171154076,34.7105
1290171214076,34.6586
1290171274076,34.7141
1290171334076,34.7167
1290171394076,34.8191
1290171454076,34.7652
1290171514076,34.7663
1290171574076,34.7605
1290171634089,34.7690
1290171694089,34.6872
1290171754089,34.8894
1290171814089,34.6807
1290171874089,34.7445
1290171934089,34.8588
1290171994089,34.7198
1290172054089,34.7395
1290172114089,34.7197
1290172174089,34.7674
1290172234089,34.7376
1290172294089,34.6767
1290172354089,34.8602
1290172414089,34.7117
1290172474089,34.7654
1290172534089,34.7156
1290172594089,34.7554
1290172654089,34.6731
1290172714089,34.7093
1290172774089,34.6866
1290172834089,34.6643
1290172894089,34.7037
1290172954089,34.7358
1290173014089,34.6761
1290173074089,34.6491
1290173134089,34.6415
1290173194089,34.7867
1290173254089,34.7252
1290173314089,34.6991
1290173374089,34.7535
1290173434089,34.8058
1290173494089,34.8749
1290173554089,34.7657
1290173614089,34.8006
1290173674089,34.7428
1290173734089,34.7828
1290173794089,34.8206
1290173854089,34.7970
1290173914089,34.7139
1290173974089,34.6676
1290174034089,34.7678
1290174094089,34.7991
1290174154089,34.7505
1290174214089,34.8021
1290174274089,34.8163
1290174334089,34.6205
1290174394089,34.7447
1290174454089,34.7594
1290174514089,34.7386
1290174574089,34.6026
1290174634089,34.6815
1290174694089,34.7486
1290174754089,34.6511
1290174814089,34.7406
1290174874089,34.7535
1290174934089,34.7796
1290174994089,34.7070
1290175054089,34.6885
1290175114089,34.7359
1290175174089,34.7177
1290175234102,34.6695
1290175294102,34.8243
1290175354102,34.7167
1290175414102,34.6498
1290175474102,34.6732
1290175534102,34.5939
1290175594102,34.7500
1290175654102,34.6297
1290175714102,34.6586
1290175774102,34.5761
1290175834102,34.6453
1290175894102,34.7186
1290175954102,34.7166
1290176014102,34.6775
1290176074102,34.6774
1290176134102,34.6728
1290176194102,34.7030
1290176254102,34.5900
1290176314102,34.6861
1290176374102,34.6354
1290176434102,34.5830
1290176494102,34.6839
1290176554102,34.7112
1290176614102,34.6257
1290176674102,34.5859
1290176734102,34.6735
1290176794102,34.7855
1290176854102,34.5158
1290176914102,34.6188
1290176974102,34.7116
1290177034102,34.6445
1290177094102,34.7232
1290177154102,34.5618
1290177214102,34.5713
1290177274102,34.5943
1290177334102,34.6232
1290177394102,34.6697
1290177454102,34.6371
1290177514102,34.6134
1290177574102,34.4675
1290177634102,34.5439
1290177694102,34.5749
1290177754102,34.6061
1290177814102,34.6697
1290177874102,34.6315
1290177934102,34.4989
1290177994102,34.6558
1290178054102,34.6496
1290178114102,34.6379
1290178174102,34.6744
1290178234102,34.5602
1290178294102,34.5448
1290178354102,34.6811
1290178414102,34.5896
1290178474102,34.5392
1290178534102,34.5551
1290178594102,34.4805
1290178654102,34.5667
1290178714102,34.5938
1290178774102,34.5195
1290178834114,34.4721
1290178894114,34.6583
1290178954114,34.4397
1290179014114,34.5462
1290179074114,34.5753
1290179134114,34.5633
1290179194114,34.4905
1290179254114,34.5081
1290179314114,34.4354
1290179374114,34.5040
1290179434114,34.6353
1290179494114,34.4671
1290179554114,34.5784
1290179614114,34.5675
1290179674114,34.4736
1290179734114,34.5420
1290179794114,34.5437
1290179854114,34.5502
1290179914114,34.5378
1290179974114,34.5610
1290180034114,34.5447
1290180094114,34.4260
1290180154114,34.4792
1290180214114,34.5212
1290180274114,34.5006
1290180334114,34.5836
1290180394114,34.4802
1290180454114,34.4438
1290180514114,34.4157
1290180574114,34.4516
1290180634114,34.4724
1290180694114,34.3928
1290180754114,34.4305
1290180814114,34.4841
1290180874114,34.4869
1290180934114,34.3447
1290180994114,34.4484
1290181054114,34.3752
1290181114114,34.4365
1290181174114,34.4639
1290181234114,34.3071
1290181294114,34.3173
1290181354114,34.3909
1290181414114,34.3290
1290181474114,34.4487
1290181534114,34.4460
1290181594114,34.4116
1290181654114,34.4763
1290181714114,34.4649
1290181774114,34.4644
1290181834114,34.5052
1290181894114,34.3976
1290181954114,34.4174
1290182014114,34.4196
1290182074114,34.4356
1290182134114,34.4379
1290182194114,34.5630
1290182254114,34.2678
1290182314114,34.4609
1290182374114,34.4780
1290182434127,34.4305
1290182494127,34.4207
1290182554127,34.4133
1290182614127,34.4158
1290182674127,34.4185
1290182734127,34.4267
1290182794127,34.3896
1290182854127,34.4648
1290182914127,34.3755
1290182974127,34.3653
1290183034127,34.3339
1290183094127,34.3824
1290183154127,34.4358
1290183214127,34.4073
1290183274127,34.3599
1290183334127,34.3845
1290183394127,34.3126
1290183454127,34.4610
1290183514127,34.4485
1290183574127,34.3484
1290183634127,34.5062
1290183694127,34.3912
1290183754127,34.3821
1290183814127,34.3372
1290183874127,34.4281
1290183934127,34.4186
1290183994127,34.3530
1290184054127,34.4150
1290184114127,34.3822
1290184174127,34.4927
1290184234127,34.3714
1290184294127,34.4528
1290184354127,34.4427
1290184414127,34.4109
1290184474127,34.4859
1290184534127,34.4849
1290184594127,34.4245
1290184654127,34.3650
1290184714127,34.3555
1290184774127,34.4479
1290184834127,34.4887
1290184894127,34.3518
1290184954127,34.3311
1290185014127,34.3439
1290185074127,34.3581
1290185134127,34.3290
1290185194127,34.3767
1290185254127,34.4292
1290185314127,34.4034
1290185374127,34.3118
1290185434127,34.3796
1290185494127,34.4165
1290185554127,34.4287
1290185614127,34.3210
1290185674127,34.3463
1290185734127,34.3664
1290185794127,34.3121
1290185854127,34.4454
1290185914127,34.3545
1290185974127,34.3233
1290186034128,34.3120
1290186094128,34.3393
1290186154128,34.2885
1290186214128,34.3664
1290186274128,34.3459
1290186334128,34.2643
1290186394128,34.3206
1290186454128,34.4912
1290186514128,34.4068
1290186574128,34.4680
1290186634128,34.3847
1290186694128,34.3555
1290186754128,34.4033
1290186814128,34.3039
1290186874128,34.4665
1290186934128,34.3855
1290186994128,34.4077
1290187054128,34.3678
1290187114128,34.3904
1290187174128,34.3796
1290187234128,34.3495
1290187294128,34.4494
1290187354128,34.4197
1290187414128,34.3131
1290187474128,34.4034
1290187534128,34.3432
1290187594128,34.4004
1290187654128,34.3792
1290187714128,34.3399
1290187774128,34.3500
1290187834128,34.3281
1290187894128,34.3400
1290187954128,34.3998
1290188014128,34.3085
1290188074128,34.4373
1290188134128,34.3507
1290188194128,34.3976
1290188254128,34.4413
1290188314128,34.3825
1290188374128,34.3777
1290188434128,34.3698
1290188494128,34.2712
1290188554128,34.4368
1290188614128,34.3279
1290188674128,34.1810
1290188734128,34.3397
1290188794128,34.3978
1290188854128,34.4086
1290188914128,34.3435
1290188974128,34.4111
1290189034128,34.3999
1290189094128,34.2942
1290189154128,34.3518
1290189214128,34.3474
1290189274128,34.3944
1290189334128,34.2867
1290189394128,34.3913
1290189454128,34.3198
1290189514128,34.3007
1290189574128,34.4194
1290189634140,34.2924
1290189694140,34.5134
1290189754140,34.4308
1290189814140,34.3136
1290189874140,34.2182
1290189934140,34.2681
1290189994140,34.3661
1290190054140,34.3885
1290190114140,34.2694
1290190174140,34.0959
1290190234140,34.2612
1290190294140,34.0885
1290190354140,34.2441
1290190414140,34.1143
1290190474140,34.1522
1290190534140,34.1676
1290190594140,34.2013
1290190654140,34.0999